Weather observations for the past three days for
Caldwell, Essex County Airport
Imperial (Metric)
Date Time (edt) Wind (mph) Vis. (mi.) Weather Sky Cond. Temperature (ºF) Relative Humidity Wind Chill (°F) Heat Index (°F) Pressure Precipitation (in)
Air Dwpt 6 hour altimeter (in) sea level (mb) 1 hr 3 hr 6 hr
Max. Min.
16 16:53 SE 10 10.00 Fair CLR 77 53.1 43% 78 30.2 1023.0
16 15:53 S 12 10.00 Fair CLR 77 48.9 37% 78 30.21 1023.4
16 14:53 NE 5 10.00 Fair CLR 79 43 28% 78 30.22 1023.8
16 13:53 Calm 10.00 Fair CLR 77 42.1 77 64.9 29% 78 30.24 1024.3
16 12:53 E 6 10.00 Fair CLR 75.9 45 33% 77 30.25 1024.8
16 11:53 E 6 10.00 Fair CLR 73.9 46 37% 30.25 1024.8
16 10:53 Calm 10.00 Fair CLR 72 45 38% 30.26 1025.3
16 09:53 NE 5 10.00 Fair CLR 70 43 38% 30.26 1025.3
16 08:53 E 7 10.00 Fair CLR 68 44.1 42% 30.27 1025.5
16 07:53 NE 9 10.00 Fair CLR 64.9 45 64.9 55.9 49% 30.25 1024.9
16 06:53 NE 3 10.00 Fair CLR 61 48.9 65% 30.24 1024.6
16 05:53 Calm 10.00 Fair CLR 57 48.9 74% 30.23 1024.0
16 04:53 Calm 10.00 Fair CLR 59 48.9 69% 30.2 1023.1
16 03:53 Calm 10.00 Fair CLR 59 50 72% 30.18 1022.3
16 02:53 Calm 10.00 Fair CLR 61 50 67% 30.17 1022.2
16 01:53 N 5 10.00 Fair CLR 64.9 48.9 79 62.1 56% 30.15 1021.3
16 00:53 Calm 10.00 Fair CLR 64 48.9 58% 30.13 1020.6
15 23:53 Calm 10.00 Fair CLR 64.9 48.9 56% 30.14 1020.9
15 22:53 Calm 10.00 Fair CLR 66 48 52% 30.12 1020.5
15 21:53 Calm 10.00 Fair CLR 69.1 48 47% 30.1 1019.5
15 20:53 Calm 10.00 Fair CLR 72 46 40% 30.07 1018.5
15 19:53 NW 6 10.00 Fair CLR 78.1 44.1 82.9 78.1 30% 78 30.05 1018.1
15 18:53 NW 9 10.00 Fair CLR 80.1 42.1 26% 79 30.03 1017.2
15 17:53 NW 9 G 20 10.00 Fair CLR 82 42.1 24% 80 30.02 1016.8
15 16:53 NW 9 10.00 Partly Cloudy SCT080 82 43 25% 80 30.02 1016.9
15 15:53 NW 10 G 21 10.00 Fair CLR 82.9 42.1 24% 81 30.01 1016.6
15 14:53 N 9 G 17 10.00 Fair CLR 82 44.1 26% 80 30 1016.2
15 13:53 Vrbl 5 10.00 Partly Cloudy SCT065 80.1 46 80.1 69.1 30% 79 30.01 1016.8
15 12:53 NW 10 G 18 10.00 Partly Cloudy SCT060 79 51.1 38% 79 30.02 1016.8
15 11:53 NE 9 10.00 Fair CLR 75.9 52 43% 78 30.01 1016.8
15 10:53 N 9 10.00 Fair CLR 75.9 52 43% 78 30.01 1016.7
15 09:53 Vrbl 3 10.00 Fair CLR 73.9 55 52% 30 1016.5
15 08:53 NE 7 10.00 Fair CLR 71.1 55 57% 30 1016.2
15 07:53 Vrbl 6 10.00 Fair CLR 69.1 55.9 69.1 62.1 63% 29.99 1015.8
15 06:53 Vrbl 3 10.00 Fair CLR 66 55.9 70% 29.96 1015.0
15 05:53 Calm 10.00 Fair CLR 62.1 57.9 86% 29.94 1014.1
15 04:53 Calm 10.00 A Few Clouds FEW090 64 59 84% 29.91 1013.3
15 03:53 Calm 10.00 Mostly Cloudy BKN090 64 60.1 87% 29.9 1012.9
15 02:53 Calm 10.00 A Few Clouds FEW080 64 61 90% 29.9 1012.9
15 01:53 Calm 10.00 Partly Cloudy SCT075 66 61 69.1 66 84% 29.89 1012.7
15 00:53 W 3 10.00 A Few Clouds FEW035 66 62.1 87% 29.9 1012.9
14 23:53 SW 3 10.00 Fair CLR 66 62.1 87% 29.9 1012.9
14 22:53 Calm 10.00 Fair CLR 66.9 62.1 84% 29.9 1012.8
14 21:53 N 5 10.00 A Few Clouds FEW070 66.9 63 87% 29.89 1012.6
14 20:53 Calm 10.00 Partly Cloudy SCT080 68 62.1 81% 29.87 1012.0
14 19:53 Calm 10.00 Overcast OVC100 69.1 61 84 66.9 76% 29.83 1010.5 0.15
14 18:53 Vrbl 5 9.00 Thunderstorm in Vicinity Light Rain FEW065 OVC110 68 61 78% 29.85 1011.1 0.15
14 17:53 NW 6 10.00 Overcast SCT080 BKN095 OVC120 82 64 55% 84 29.82 1010.2
14 16:53 Vrbl 3 10.00 Partly Cloudy SCT110 84 64 51% 85 29.83 1010.4
14 15:53 Calm 10.00 Fair CLR 82.9 66 57% 85 29.83 1010.4
14 14:53 NW 5 10.00 A Few Clouds FEW050 FEW070 FEW100 82.9 64 53% 84 29.85 1011.1
14 13:53 W 8 10.00 A Few Clouds FEW035 84 64 84 72 51% 85 29.87 1011.9
14 12:53 SW 3 10.00 Fair CLR 82.9 64 53% 84 29.88 1012.1
14 11:53 Calm 10.00 Fair CLR 82 64 55% 84 29.88 1012.3
14 10:53 Vrbl 3 10.00 Mostly Cloudy BKN080 81 64 57% 83 29.9 1012.7
14 09:53 Calm 10.00 Partly Cloudy SCT080 79 64 60% 81 29.9 1012.6
14 08:53 Vrbl 5 10.00 Fair CLR 75 62.1 64% 77 29.9 1012.8
14 07:53 Vrbl 3 10.00 Fair CLR 72 60.1 72 68 66% 29.91 1013.1
14 06:53 W 5 10.00 Fair CLR 70 60.1 71% 29.9 1012.6
14 05:53 Calm 10.00 Fair CLR 68 59 73% 29.89 1012.6
14 04:53 Calm 10.00 Fair CLR 69.1 57.9 68% 29.9 1012.8
14 03:53 Vrbl 3 10.00 Fair CLR 70 57.9 66% 29.9 1012.8
14 02:53 Calm 10.00 Fair CLR 71.1 57.9 63% 29.91 1013.1
14 01:53 Calm 10.00 Fair CLR 72 57.9 84.9 72 61% 29.92 1013.6
14 00:53 Vrbl 3 10.00 Fair CLR 73 59 62% 29.94 1014.2
13 23:53 SW 5 10.00 Fair CLR 75 59 58% 77 29.95 1014.5
13 22:53 Vrbl 3 10.00 Fair CLR 77 59 54% 79 29.95 1014.5
13 21:53 SW 7 10.00 Fair CLR 79 59 50% 80 29.95 1014.6
13 20:53 S 9 10.00 Fair CLR 81 59 47% 81 29.94 1014.2
13 19:53 SW 3 10.00 Fair CLR 84.9 54 88 84.9 35% 83 29.94 1014.4
13 18:53 Vrbl 6 10.00 Fair CLR 87.1 53.1 31% 85 29.94 1014.1
13 17:53 SW 8 10.00 Fair CLR 87.1 52 30% 85 29.93 1013.9
Date Time (edt) Wind (mph) Vis. (mi.) Weather Sky Cond. Air Dwpt Max. Min. Relative Humidity Wind Chill (°F) Heat Index (°F) altimeter (in) sea level (mb) 1 hr 3 hr 6 hr
6 hour
Temperature (ºF) Pressure Precipitation (in)